FW0717 Weather Reports


Display with metric or nautical units.
time (UTC)temp
F
wind
direction
speed
MPH
gust
MPH
rain 1hr
in
rain 24hr
in
rain mn
in
humidity
%
barometer
mb
20260509212505 89 163 1.0 3.0 0.00 0.00 0.00 63 1006.9
20260509212005 89 162 0.0 3.0 0.00 0.00 0.00 64 1006.9
20260509211505 89 162 0.0 3.0 0.00 0.00 0.00 64 1007.0
20260509211006 89 161 2.0 3.0 0.00 0.00 0.00 64 1007.1
20260509210505 89 159 2.0 5.0 0.00 0.00 0.00 64 1007.2
20260509210006 89 159 4.0 5.0 0.00 0.00 0.00 64 1007.2
20260509205505 89 159 1.0 3.0 0.00 0.00 0.00 64 1007.2
20260509205006 89 159 0.0 5.0 0.00 0.00 0.00 67 1007.4
20260509204505 88 157 2.0 5.0 0.00 0.00 0.00 67 1007.5
20260509204005 88 160 2.0 5.0 0.00 0.00 0.00 66 1007.4
20260509203505 89 159 1.0 3.0 0.00 0.00 0.00 67 1007.4
20260509203006 88 159 2.0 3.0 0.00 0.00 0.00 66 1007.4
20260509202504 88 158 1.0 2.0 0.00 0.00 0.00 67 1007.6
20260509202005 87 271 1.0 3.0 0.00 0.00 0.00 64 1007.6
20260509201505 88 271 0.0 7.0 0.00 0.00 0.00 65 1007.7
20260509201006 89 271 1.0 7.0 0.00 0.00 0.00 66 1007.8
20260509200506 89 272 3.0 6.0 0.00 0.00 0.00 66 1008.0
20260509195505 88 271 3.0 6.0 0.00 0.00 0.00 68 1008.1
20260509195005 87 192 1.0 4.0 0.00 0.00 0.00 69 1008.1
20260509194506 87 192 2.0 4.0 0.00 0.00 0.00 68 1008.1
20260509194005 86 192 0.0 4.0 0.00 0.00 0.00 70 1008.2
20260509193505 86 195 0.0 4.0 0.00 0.00 0.00 71 1008.3
20260509193005 87 250 1.0 4.0 0.00 0.00 0.00 70 1008.4
20260509192013 87 279 2.0 4.0 0.00 0.00 0.00 69 1008.4
20260509191505 86 292 3.0 4.0 0.00 0.00 0.00 71 1008.5
20260509191005 85 296 1.0 3.0 0.00 0.00 0.00 72 1008.5
20260509190506 85 5 0.0 2.0 0.00 0.00 0.00 73 1008.5
20260509190008 85 9 2.0 3.0 0.00 0.00 0.00 74 1008.5
20260509185504 85 337 1.0 3.0 0.00 0.00 0.00 75 1008.6
20260509185005 85 337 2.0 4.0 0.00 0.00 0.00 74 1008.8
20260509184506 84 338 3.0 4.0 0.00 0.00 0.00 75 1008.9
20260509183505 84 338 0.0 4.0 0.00 0.00 0.00 74 1009.0
20260509183005 84 338 3.0 4.0 0.00 0.00 0.00 75 1009.1
20260509182005 84 237 2.0 5.0 0.00 0.00 0.00 76 1009.2
20260509181505 84 237 0.0 5.0 0.00 0.00 0.00 75 1009.3
20260509181006 84 238 1.0 5.0 0.00 0.00 0.00 76 1009.4
20260509180506 83 173 2.0 4.0 0.00 0.00 0.00 76 1009.4
20260509180007 83 173 0.0 5.0 0.00 0.00 0.00 76 1009.4
20260509175005 83 245 0.0 3.0 0.00 0.00 0.00 77 1009.7
20260509174506 83 245 0.0 3.0 0.00 0.00 0.00 77 1009.6
20260509174005 83 248 1.0 5.0 0.00 0.00 0.00 77 1009.7
20260509173005 84 249 5.0 5.0 0.00 0.00 0.00 75 1009.7
20260509172505 84 194 1.0 5.0 0.00 0.00 0.00 76 1009.5
20260509171504 83 196 0.0 3.0 0.00 0.00 0.00 78 1009.6
20260509171005 83 196 0.0 3.0 0.00 0.00 0.00 77 1009.5
20260509170007 82 197 1.0 4.0 0.00 0.00 0.00 81 1009.5
20260509165005 81 137 0.0 7.0 0.00 0.00 0.00 83 1009.5
20260509164506 80 138 1.0 5.0 0.00 0.00 0.00 84 1009.5
20260509164005 80 138 1.0 3.0 0.00 0.00 0.00 84 1009.5
20260509163005 79 138 0.0 0.0 0.00 0.00 0.00 85 1009.6
20260509162506 79 138 0.0 0.0 0.00 0.00 0.00 85 1009.8
20260509162004 79 138 0.0 0.0 0.00 0.00 0.00 85 1009.8
20260509161505 79 138 0.0 0.0 0.00 0.00 0.00 85 1009.7
20260509160506 79 191 0.0 3.0 0.00 0.00 0.00 86 1009.8
20260509155504 79 171 2.0 4.0 0.00 0.00 0.00 88 1010.0
20260509155005 78 140 0.0 0.0 0.00 0.00 0.00 89 1010.0
20260509154506 78 144 0.0 0.0 0.00 0.00 0.00 90 1010.1
20260509154005 78 144 0.0 0.0 0.00 0.00 0.00 91 1010.0
20260509153506 77 150 0.0 0.0 0.00 0.00 0.00 92 1010.1
20260509153005 77 150 0.0 0.0 0.00 0.00 0.00 93 1010.2
20260509152505 77 150 0.0 0.0 0.00 0.00 0.00 93 1010.2
20260509151504 76 273 0.0 0.0 0.00 0.00 0.00 94 1010.1
20260509151005 76 297 0.0 0.0 0.00 0.00 0.00 94 1010.1
20260509150007 76 296 0.0 0.0 0.00 0.00 0.00 95 1010.0
20260509145504 76 296 0.0 0.0 0.00 0.00 0.00 95 1009.9
20260509145005 75 296 0.0 0.0 0.00 0.00 0.00 95 1009.8
20260509144506 75 286 0.0 0.0 0.00 0.00 0.00 95 1009.9
20260509144004 75 306 0.0 0.0 0.00 0.00 0.00 95 1009.8
20260509143504 75 306 0.0 0.0 0.00 0.00 0.00 95 1009.7
20260509143005 75 306 0.0 0.0 0.00 0.00 0.00 95 1009.7
20260509142506 75 69 0.0 0.0 0.00 0.00 0.00 95 1009.6
20260509142004 75 178 0.0 0.0 0.00 0.00 0.00 96 1009.5
20260509141504 75 176 0.0 0.0 0.00 0.00 0.00 96 1009.4
20260509141005 75 176 0.0 0.0 0.00 0.00 0.00 96 1009.3
20260509140505 74 176 0.0 0.0 0.00 0.00 0.00 95 1009.4
20260509135005 74 130 0.0 0.0 0.00 0.00 0.00 95 1009.5
20260509134505 74 130 0.0 0.0 0.00 0.00 0.00 96 1009.7
20260509134004 74 130 0.0 0.0 0.00 0.00 0.00 96 1009.7
20260509133504 74 130 0.0 0.0 0.00 0.00 0.00 96 1009.9
20260509133005 74 130 0.0 0.0 0.00 0.00 0.00 96 1009.9
20260509132505 74 130 0.0 0.0 0.00 0.00 0.00 96 1009.9
20260509131504 74 130 0.0 0.0 0.00 0.00 0.00 96 1010.1
20260509131004 74 130 0.0 0.0 0.00 0.00 0.00 96 1010.1
20260509130505 74 130 0.0 0.0 0.00 0.00 0.00 96 1009.9
20260509125504 74 130 0.0 0.0 0.00 0.00 0.00 96 1009.9
20260509125005 74 130 0.0 0.0 0.00 0.00 0.00 96 1010.1
20260509124503 73 130 0.0 0.0 0.00 0.00 0.00 96 1010.0
20260509124004 73 130 0.0 0.0 0.00 0.00 0.00 96 1009.9
20260509123503 73 130 0.0 0.0 0.00 0.00 0.00 96 1009.9
20260509123005 73 130 0.0 0.0 0.00 0.00 0.00 96 1010.0
20260509122507 73 130 0.0 0.0 0.00 0.00 0.00 96 1010.0
20260509122006 73 130 0.0 0.0 0.00 0.00 0.00 95 1009.9
20260509121506 73 130 0.0 0.0 0.00 0.00 0.00 95 1009.9
20260509121007 73 130 0.0 0.0 0.00 0.00 0.00 95 1009.7
20260509120506 73 130 0.0 0.0 0.00 0.00 0.00 95 1009.3
20260509120009 73 131 0.0 0.0 0.00 0.00 0.00 95 1009.2
20260509115506 73 131 0.0 0.0 0.00 0.00 0.00 95 1009.2
20260509114507 73 131 0.0 0.0 0.00 0.00 0.00 95 1009.3
20260509114006 73 131 0.0 0.0 0.00 0.00 0.00 95 1009.1
20260509113505 73 131 0.0 3.0 0.00 0.00 0.00 95 1009.2
20260509113007 73 131 1.0 3.0 0.00 0.00 0.00 95 1009.1
20260509112007 73 131 2.0 3.0 0.00 0.00 0.00 95 1009.0
20260509111006 73 130 0.0 0.0 0.00 0.00 0.00 95 1009.4
20260509110506 73 130 0.0 1.0 0.00 0.00 0.00 95 1009.5
20260509110008 73 130 0.0 2.0 0.00 0.00 0.00 95 1009.3
20260509105006 73 131 2.0 3.0 0.00 0.00 0.00 95 1009.6
20260509104507 73 131 1.0 3.0 0.00 0.00 0.00 95 1009.7
20260509103506 73 131 0.0 0.0 0.00 0.00 0.00 95 1009.6
20260509103006 73 131 0.0 0.0 0.00 0.00 0.00 95 1009.5
20260509102507 73 131 0.0 1.0 0.00 0.00 0.00 95 1009.4
20260509102006 73 131 0.0 3.0 0.00 0.00 0.00 95 1009.2
20260509101506 73 131 1.0 3.0 0.00 0.00 0.00 95 1009.0
20260509101007 73 131 0.0 3.0 0.00 0.00 0.00 95 1008.9
20260509100008 72 132 0.0 0.0 0.00 0.00 0.00 95 1008.5
20260509095006 72 132 0.0 0.0 0.00 0.00 0.00 95 1008.5
20260509094511 72 132 0.0 0.0 0.00 0.00 0.00 95 1008.6
20260509094006 73 132 0.0 0.0 0.00 0.00 0.00 95 1008.7
20260509093505 73 132 0.0 0.0 0.00 0.00 0.00 95 1008.8
20260509093006 73 132 0.0 0.0 0.00 0.00 0.00 95 1008.9
20260509091505 73 132 0.0 0.0 0.00 0.00 0.00 95 1009.1
20260509091006 73 132 0.0 0.0 0.00 0.00 0.00 95 1008.9
20260509090507 73 132 0.0 2.0 0.00 0.00 0.00 95 1009.1
20260509090010 73 132 1.0 3.0 0.00 0.00 0.00 95 1009.2
20260509085505 73 132 1.0 3.0 0.00 0.00 0.00 95 1009.3
20260509085007 73 131 0.0 3.0 0.00 0.00 0.00 94 1009.3
20260509084506 73 131 1.0 1.0 0.00 0.00 0.00 94 1009.3
20260509084005 73 131 0.0 0.0 0.00 0.00 0.00 94 1009.2
20260509082505 73 131 0.0 2.0 0.00 0.00 0.00 94 1009.1
20260509082006 73 131 0.0 2.0 0.00 0.00 0.00 94 1009.2
20260509081005 73 131 0.0 1.0 0.00 0.00 0.00 94 1009.1
20260509080505 73 131 0.0 2.0 0.00 0.00 0.00 94 1009.0
20260509080008 73 131 0.0 4.0 0.00 0.00 0.00 94 1008.9
20260509075507 73 131 0.0 4.0 0.00 0.00 0.00 94 1009.0
20260509075005 73 133 1.0 3.0 0.00 0.00 0.00 94 1009.0
20260509074505 73 133 1.0 3.0 0.00 0.00 0.00 94 1009.1
20260509073506 73 133 1.0 3.0 0.00 0.00 0.00 94 1009.1
20260509073005 73 133 0.0 2.0 0.00 0.00 0.00 94 1009.1
20260509072505 73 133 1.0 2.0 0.00 0.00 0.00 94 1009.2
20260509072008 73 133 0.0 3.0 0.00 0.00 0.00 94 1009.3
20260509071507 73 133 1.0 3.0 0.00 0.00 0.00 94 1009.2
20260509071005 73 133 0.0 0.0 0.00 0.00 0.00 94 1009.3
20260509070505 73 133 0.0 0.0 0.00 0.00 0.00 94 1009.4
20260509070008 73 133 0.0 0.0 0.00 0.00 0.00 94 1009.4
20260509065506 73 133 0.0 0.0 0.00 0.00 0.00 94 1009.5
20260509065005 73 133 0.0 0.0 0.00 0.00 0.00 94 1009.5
20260509064506 73 133 0.0 0.0 0.00 0.00 0.00 94 1009.4
20260509064006 73 133 0.0 0.0 0.00 0.00 0.00 94 1009.4
20260509063507 73 133 0.0 0.0 0.00 0.00 0.00 94 1009.4
20260509063006 73 133 0.0 0.0 0.00 0.00 0.00 94 1009.4
20260509062505 73 133 0.0 0.0 0.00 0.00 0.00 94 1009.4
20260509062006 73 133 0.0 0.0 0.00 0.00 0.00 94 1009.5
20260509061506 73 133 0.0 0.0 0.00 0.00 0.00 94 1009.7
20260509061006 73 133 0.0 0.0 0.00 0.00 0.00 94 1009.6
20260509060505 73 133 0.0 0.0 0.00 0.00 0.00 94 1009.6
20260509060008 73 133 0.0 3.0 0.00 0.00 0.00 94 1009.6
20260509055507 73 133 1.0 3.0 0.00 0.00 0.00 94 1009.6
20260509054508 73 133 0.0 2.0 0.00 0.00 0.00 94 1009.8
20260509054006 73 133 1.0 2.0 0.00 0.00 0.00 94 1009.8
20260509053506 73 133 0.0 3.0 0.00 0.00 0.00 94 1009.8
20260509053005 73 133 1.0 3.0 0.00 0.00 0.00 94 1009.7
20260509052507 72 133 1.0 2.0 0.00 0.00 0.00 93 1009.8
20260509052006 72 133 0.0 3.0 0.00 0.00 0.00 93 1009.8
20260509051509 72 133 3.0 3.0 0.00 0.00 0.00 93 1009.7
20260509051005 72 133 2.0 4.0 0.00 0.00 0.00 93 1009.6
20260509050505 72 133 3.0 5.0 0.00 0.00 0.00 93 1009.5
20260509050008 72 133 2.0 5.0 0.00 0.00 0.00 93 1009.8
20260509045506 72 134 1.0 4.0 0.00 0.00 0.00 93 1009.8
20260509045005 72 134 1.0 4.0 0.00 0.00 0.00 93 1009.8
20260509044504 72 115 1.0 6.0 0.00 0.00 0.00 93 1009.8
20260509043505 72 92 0.0 6.0 0.00 0.00 0.00 93 1009.8
20260509043006 72 92 0.0 6.0 0.00 0.00 0.00 93 1009.6
20260509042504 72 90 2.0 3.0 0.00 0.00 0.00 93 1009.6
20260509042005 72 90 0.0 7.0 0.00 0.00 0.00 93 1009.6
20260509041506 72 90 3.0 7.0 0.00 0.00 0.00 93 1009.7
20260509041004 72 94 2.0 6.0 0.00 0.00 0.00 93 1009.8
20260509040504 72 94 3.0 6.0 0.00 0.00 0.00 93 1009.8
20260509040007 72 94 2.0 4.0 0.00 0.00 0.00 93 1009.7
20260509035505 72 94 0.0 4.0 0.00 0.00 0.00 93 1009.6
20260509034504 72 94 0.0 4.0 0.00 0.00 0.00 93 1009.6
20260509034005 72 94 2.0 4.0 0.00 0.00 0.00 93 1009.6
20260509033504 72 94 1.0 3.0 0.00 0.00 0.00 93 1009.6
20260509033004 72 94 0.0 3.0 0.00 0.00 0.00 93 1009.5
20260509032504 72 94 2.0 6.0 0.00 0.00 0.00 93 1009.5
20260509031506 72 94 1.0 6.0 0.00 0.00 0.00 93 1009.4
20260509031009 72 94 1.0 6.0 0.00 0.00 0.00 93 1009.4
20260509030009 72 94 1.0 6.0 0.00 0.00 0.00 93 1009.3
20260509025506 72 94 0.0 8.0 0.00 0.00 0.00 93 1009.1
20260509025004 72 94 1.0 8.0 0.00 0.00 0.00 93 1009.2
20260509024506 72 107 2.0 6.0 0.00 0.00 0.00 92 1009.1
20260509024005 72 105 0.0 4.0 0.00 0.00 0.00 92 1009.2
20260509022504 72 105 0.0 6.0 0.00 0.00 0.00 92 1009.0
20260509021004 72 123 2.0 6.0 0.00 0.00 0.00 92 1009.0
20260509020506 72 123 1.0 7.0 0.00 0.00 0.00 92 1009.1
20260509020007 72 140 3.0 7.0 0.00 0.00 0.00 92 1009.0
20260509015505 72 93 3.0 3.0 0.00 0.00 0.00 92 1008.9
20260509014005 72 92 1.0 4.0 0.00 0.00 0.00 92 1008.9
20260509013507 72 92 2.0 4.0 0.00 0.00 0.00 92 1009.0
20260509013004 73 93 1.0 6.0 0.00 0.00 0.00 92 1008.8
20260509012503 73 92 3.0 6.0 0.00 0.00 0.00 92 1008.7
20260509011505 73 88 1.0 4.0 0.00 0.00 0.00 92 1008.7
20260509010506 73 87 0.0 2.0 0.00 0.00 0.00 92 1008.6
20260509010007 73 87 0.0 3.0 0.00 0.00 0.00 92 1008.5
20260509005505 73 87 0.0 4.0 0.00 0.00 0.00 91 1008.4
20260509005004 73 87 1.0 4.0 0.00 0.00 0.00 91 1008.5
20260509004504 73 87 0.0 4.0 0.00 0.00 0.00 91 1008.4
20260509004005 73 87 1.0 4.0 0.00 0.00 0.00 91 1008.4
20260509003505 73 86 0.0 2.0 0.00 0.00 0.00 91 1008.6
20260509003004 73 86 0.0 3.0 0.00 0.00 0.00 90 1008.6
20260509002503 74 86 1.0 3.0 0.00 0.00 0.00 90 1008.8
20260509002004 74 86 0.0 5.0 0.00 0.00 0.00 90 1008.9
20260509001004 74 103 0.0 4.0 0.00 0.00 0.00 89 1008.9
20260509000007 74 103 0.0 8.0 0.00 0.00 0.00 88 1008.7
20260508235505 74 108 2.0 8.0 0.00 0.00 0.00 88 1008.7
20260508235004 74 71 4.0 7.0 0.00 0.00 0.00 88 1008.8
20260508234503 75 130 3.0 8.0 0.00 0.00 0.00 87 1008.9
20260508233508 75 122 3.0 7.0 0.00 0.00 0.00 87 1008.9
20260508233004 75 113 2.0 6.0 0.00 0.00 0.00 87 1008.9
20260508232004 75 113 1.0 7.0 0.00 0.00 0.00 86 1009.0
20260508231504 76 115 4.0 6.0 0.00 0.00 0.00 86 1008.9
20260508231004 76 113 3.0 6.0 0.00 0.00 0.00 85 1008.8
20260508230507 76 113 4.0 6.0 0.00 0.00 0.00 86 1008.6
20260508230007 76 114 1.0 4.0 0.00 0.00 0.00 85 1008.6
20260508225508 76 114 1.0 4.0 0.00 0.00 0.00 85 1008.6
20260508225004 76 115 1.0 4.0 0.00 0.00 0.00 85 1008.6
20260508224504 76 113 1.0 6.0 0.00 0.00 0.00 85 1008.8
20260508223504 76 115 2.0 4.0 0.00 0.00 0.00 84 1008.6
20260508223004 76 115 0.0 4.0 0.00 0.00 0.00 84 1008.8
20260508222007 76 115 0.0 6.0 0.00 0.00 0.00 84 1008.7
20260508221505 76 115 3.0 7.0 0.00 0.00 0.00 83 1008.8
20260508221005 77 116 1.0 7.0 0.00 0.00 0.00 84 1008.9
20260508220504 76 114 1.0 6.0 0.00 0.00 0.00 83 1008.9
20260508220012 77 115 1.0 6.0 0.00 0.00 0.00 83 1008.8
20260508215506 77 115 1.0 4.0 0.00 0.00 0.00 83 1008.8
20260508214505 77 113 1.0 6.0 0.00 0.00 0.00 83 1008.8
20260508214010 77 113 0.0 6.0 0.00 0.00 0.00 83 1008.9
20260508213504 77 117 0.0 4.0 0.00 0.00 0.00 82 1009.0